Grand Forks, ND

6:43 PM CDT on July 24, 2017 (GMT -0500)
Grand Forks International

Weather History for KGFK - March, 2014

Change the Weather History Date:

Sunday, March 23, 2014

  Actual Average Record
Temperature  
Mean Temperature 13 °F 29 °F  
Max Temperature 23 °F 38 °F 67 °F (1945)
Min Temperature 2 °F 20 °F -21 °F (1974)
Degree Days  
Heating Degree Days 52 36  
Month to date heating degree days 1118 968  
Since 1 July heating degree days 9013 8118  
Cooling Degree Days 0 0  
Month to date cooling degree days 0 0  
Year to date cooling degree days 0 0  
Moisture  
Dew Point 5 °F    
Average Humidity 72    
Maximum Humidity 88    
Minimum Humidity 56    
Precipitation  
Precipitation 0.00 in 0.03 in 0.55 in (2012)
Month to date precipitation 0.59 0.71  
Year to date precipitation 1.66 1.78  
Snow  
Snow 0.00 in 0.20 in 3.70 in (1964)
Month to date snowfall 1.6 6.0  
Since 1 July snowfall 47.3 43.2  
Snow Depth 1.00 in    
Sea Level Pressure  
Sea Level Pressure 30.45 in    
Wind  
Wind Speed 6 mph (WNW)    
Max Wind Speed 13 mph    
Max Gust Speed 17 mph    
Visibility 10 miles    
Events      
T = Trace of Precipitation, MM = Missing Value Source: NWS Daily Summary

Daily Weather History Graph

Daily Weather History Graph

Search for Another Location

Airport or City:

Trip Planner

Search our weather history database for the weather conditions in past years. The results will help you decide how hot, cold, wet, or windy it might be!

Date:

Astronomy

Mar. 23, 2014 Rise Set
Actual Time 7:25 AM CDT 7:45 PM CDT
Civil Twilight 6:54 AM CDT 8:17 PM CDT
Nautical Twilight 6:17 AM CDT 8:53 PM CDT
Astronomical Twilight 5:39 AM CDT 9:31 PM CDT
Moon 2:25 AM CDT (3/23) 11:46 AM CDT (3/23)
Length of Visible Light 13h 22m
Length of Day
12h 20m
Waning Gibbous, 54% of the Moon is Illuminated
Mar 23
Waning Gibbous
Mar 23
Last Quarter
Mar 30
New
Apr 7
First Quarter
Apr 15
Full

Hourly Weather History & Observations

Time (CDT) Temp. Windchill Dew Point Humidity Pressure Visibility Wind Dir Wind Speed Gust Speed Precip Events Conditions
12:53 AM 7.0 °F 0.1 °F 3.0 °F 84% 30.55 in 10.0 mi West 3.5 mph - N/A   Clear
1:53 AM 7.0 °F -1.7 °F 1.9 °F 80% 30.54 in 10.0 mi West 4.6 mph - N/A   Clear
2:53 AM 7.0 °F -4.5 °F 1.0 °F 77% 30.53 in 10.0 mi West 6.9 mph - N/A   Clear
3:53 AM 5.0 °F -5.6 °F -0.0 °F 80% 30.53 in 10.0 mi West 5.8 mph - N/A   Clear
4:53 AM 3.9 °F -6.9 °F -0.9 °F 80% 30.52 in 10.0 mi West 5.8 mph - N/A   Clear
5:53 AM 3.9 °F -6.9 °F -0.9 °F 80% 30.52 in 10.0 mi West 5.8 mph - N/A   Clear
6:53 AM 3.0 °F -4.4 °F -2.0 °F 80% 30.51 in 10.0 mi West 3.5 mph - N/A   Clear
7:53 AM 3.0 °F -4.4 °F -2.0 °F 80% 30.51 in 10.0 mi WNW 3.5 mph - N/A   Clear
8:53 AM 6.1 °F -2.8 °F -0.0 °F 76% 30.51 in 10.0 mi WNW 4.6 mph - N/A   Clear
9:53 AM 10.0 °F 0.4 °F 1.0 °F 67% 30.50 in 10.0 mi NW 5.8 mph - N/A   Clear
10:53 AM 12.0 °F 2.7 °F 1.9 °F 64% 30.50 in 10.0 mi West 5.8 mph - N/A   Partly Cloudy
11:53 AM 14.0 °F 6.5 °F 3.0 °F 62% 30.49 in 10.0 mi West 4.6 mph - N/A   Partly Cloudy
12:53 PM 16.0 °F 4.4 °F 5.0 °F 62% 30.48 in 10.0 mi WNW 9.2 mph - N/A   Mostly Cloudy
1:53 PM 17.1 °F 6.6 °F 6.1 °F 62% 30.45 in 10.0 mi West 8.1 mph - N/A   Mostly Cloudy
2:53 PM 19.9 °F 9.3 °F 8.1 °F 60% 30.42 in 10.0 mi West 9.2 mph - N/A   Mostly Cloudy
3:53 PM 19.9 °F 12.1 °F 7.0 °F 57% 30.39 in 10.0 mi WNW 5.8 mph - N/A   Mostly Cloudy
4:53 PM 21.0 °F 16.2 °F 8.1 °F 57% 30.37 in 10.0 mi WSW 3.5 mph - N/A   Mostly Cloudy
5:53 PM 21.9 °F 11.0 °F 10.0 °F 60% 30.35 in 10.0 mi West 10.4 mph - N/A   Mostly Cloudy
6:53 PM 21.9 °F 10.4 °F 10.9 °F 63% 30.35 in 10.0 mi WNW 11.5 mph - N/A   Mostly Cloudy
7:53 PM 19.0 °F 10.0 °F 10.9 °F 71% 30.35 in 10.0 mi NNE 6.9 mph - N/A   Mostly Cloudy
8:53 PM 19.0 °F - 10.0 °F 68% 30.35 in 10.0 mi Calm Calm - N/A   Partly Cloudy
9:53 PM 16.0 °F 10.4 °F 10.9 °F 81% 30.35 in 10.0 mi NNW 3.5 mph - N/A   Clear
10:53 PM 14.0 °F 8.2 °F 8.1 °F 77% 30.35 in 10.0 mi NW 3.5 mph - N/A   Clear
11:53 PM 12.9 °F 6.9 °F 9.0 °F 84% 30.35 in 10.0 mi West 3.5 mph - N/A   Clear